Content
SEND FEEDBACK

Daily
Averages
Monthly
Summary
United States of America

ACHANG BAY, GUAM


Home > North America > United States > Guam
Elevation: 30 feet     Latitude: 13 16N     Longitude: 144 45E

WEATHER
 
SELECT A DAY
Number of Records: 356,513;   Date Range: 1/1/95 - 12/18/14
 
SHARE

PRINT THIS DATA

[ ← Previous Day ]
WEATHER ALMANAC - FEBRUARY 22, 2013
[ Next Day → ]
[ °C ]   °F
Weather ElementAverageHighLow
Temperature79.1 °F84.2 °F (12:55 pm)76.5 °F (5:55 am)
Dewpoint72.5 °F75.9 °F (10:55 am)69.6 °F (5:55 am)
Humidity80.4 %89 % (10:52 am)70 % (9:55 am)
Barometer29.85 in29.93 in (11:42 pm)29.79 in (3:39 am)
Wind Speed17 mph23 mph (2:03 pm)
Wind Gust27.6 mph (12:22 pm)
Weather ElementAverage
Visibility9.8 mi
Wind DirectionENE (60.1 °)

Weather ElementTotal
Precipitation---
Cooling Degree Days15.4 (Base 65)
Growing Degree Days30.4 (Base 50)
Averaged from 91 records on February 22, 2013
WEATHER CONDITIONS BREAKOUT
WIND DIRECTION BREAKOUT
WEATHER BY HOUR - FEBRUARY 22, 2013
[ °C ]   °F
Local TimeTemperatureDewpointHumidityBarometerVisibilityWind DirectionWind SpeedGust SpeedPrecipitationEventsConditions
1:36 AM77.0 °F71.6 °F83 %29.83 in10.0 miENE (60°)16.1 mphMostly Cloudy
1:46 AM77.0 °F71.6 °F83 %29.82 in10.0 miENE (60°)16.1 mphScattered Clouds
1:49 AM77.0 °F71.6 °F83 %29.82 in10.0 miENE (60°)17.3 mphMostly Cloudy
1:55 AM77.4 °F72.5 °F85 %29.81 in10.0 miENE (70°)13.8 mphMostly Cloudy
2:19 AM77.0 °F69.8 °F78 %29.81 in10.0 miENE (60°)17.3 mphScattered Clouds
2:35 AM77.0 °F69.8 °F78 %29.80 in10.0 miENE (70°)15.0 mph24.2 mphMostly Cloudy
2:39 AM77.0 °F69.8 °F78 %29.80 in10.0 miENE (70°)17.3 mph24.2 mphScattered Clouds
2:55 AM76.8 °F70.3 °F80 %29.80 in10.0 miENE (70°)16.1 mphPartly Cloudy
3:39 AM77.0 °F71.6 °F83 %29.79 in10.0 miENE (70°)15.0 mphMostly Cloudy
3:55 AM77.0 °F71.8 °F84 %29.79 in10.0 miENE (60°)12.7 mphMostly Cloudy
4:22 AM77.0 °F69.8 °F78 %29.79 in10.0 miENE (70°)18.4 mphScattered Clouds
4:35 AM77.0 °F71.6 °F83 %29.80 in10.0 miENE (70°)18.4 mph24.2 mphMostly Cloudy
4:38 AM77.0 °F69.8 °F78 %29.80 in10.0 miENE (70°)19.6 mph24.2 mphScattered Clouds
4:55 AM77.0 °F70.5 °F80 %29.80 in10.0 miEast (80°)15.0 mphScattered Clouds
5:55 AM76.5 °F69.6 °F79 %29.81 in10.0 miEast (80°)17.3 mphScattered Clouds
6:55 AM76.5 °F69.8 °F80 %29.84 in10.0 miEast (80°)15.0 mphScattered Clouds
7:09 AM77.0 °F69.8 °F78 %29.85 in10.0 miENE (70°)16.1 mphMostly Cloudy
7:42 AM78.8 °F69.8 °F74 %29.87 in10.0 miENE (70°)13.8 mphScattered Clouds
7:47 AM78.8 °F69.8 °F74 %29.87 in10.0 miENE (70°)15.0 mphRainLight Rain
7:55 AM78.4 °F70.5 °F77 %29.87 in10.0 miENE (70°)15.0 mph0.00 inRainLight Rain
7:56 AM78.8 °F69.8 °F74 %29.87 in10.0 miENE (70°)15.0 mphScattered Clouds
8:55 AM80.6 °F71.4 °F73 %29.88 in10.0 miENE (70°)13.8 mphPartly Cloudy
9:30 AM78.8 °F73.4 °F83 %29.89 in10.0 miENE (60°)18.4 mphLight Drizzle
9:37 AM78.8 °F73.4 °F83 %29.89 in10.0 miENE (60°)17.3 mphScattered Clouds
9:55 AM81.7 °F70.9 °F70 %29.89 in10.0 miENE (60°)15.0 mph0.00 inPartly Cloudy
10:44 AM82.4 °F73.4 °F74 %29.88 in6.0 miENE (60°)16.1 mphRainLight Rain
10:52 AM78.8 °F75.2 °F89 %29.88 in4.0 miENE (60°)16.1 mph23.0 mphRainLight Rain
10:55 AM79.5 °F75.9 °F89 %29.88 in7.0 miENE (60°)17.3 mph24.2 mph0.00 inMostly Cloudy
10:57 AM80.6 °F75.2 °F84 %29.88 in10.0 miENE (60°)16.1 mph24.2 mphScattered Clouds
11:11 AM82.4 °F75.2 °F79 %29.87 in10.0 miENE (70°)17.3 mph23.0 mphMostly Cloudy
11:55 AM81.1 °F72.7 °F75 %29.86 in10.0 miENE (60°)21.9 mphMostly Cloudy
12:22 PM82.4 °F73.4 °F74 %29.85 in10.0 miENE (60°)18.4 mph27.6 mphScattered Clouds
12:24 PM82.4 °F73.4 °F74 %29.85 in10.0 miENE (60°)20.7 mph26.5 mphMostly Cloudy
12:27 PM82.4 °F73.4 °F74 %29.85 in10.0 miENE (70°)17.3 mphScattered Clouds
12:55 PM84.2 °F74.1 °F72 %29.83 in10.0 miNE (50°)21.9 mphScattered Clouds
1:16 PM84.2 °F73.4 °F70 %29.83 in10.0 miENE (60°)21.9 mphMostly Cloudy
1:34 PM82.4 °F73.4 °F74 %29.83 in10.0 miENE (60°)20.7 mphScattered Clouds
1:37 PM82.4 °F73.4 °F74 %29.83 in10.0 miENE (60°)20.7 mphMostly Cloudy
1:51 PM82.4 °F73.4 °F74 %29.82 in10.0 miENE (60°)19.6 mphScattered Clouds
1:55 PM83.1 °F73.0 °F71 %29.82 in10.0 miENE (60°)19.6 mphScattered Clouds
2:03 PM82.4 °F73.4 °F74 %29.82 in10.0 miNE (50°)23.0 mphMostly Cloudy
2:18 PM82.4 °F73.4 °F74 %29.81 in10.0 miENE (60°)15.0 mph25.3 mphScattered Clouds
2:21 PM84.2 °F73.4 °F70 %29.81 in10.0 miENE (60°)16.1 mph25.3 mphMostly Cloudy
2:36 PM84.2 °F73.4 °F70 %29.81 in10.0 miNE (50°)19.6 mphScattered Clouds
2:47 PM82.4 °F73.4 °F74 %29.81 in10.0 miNE (50°)21.9 mphMostly Cloudy
2:55 PM82.2 °F73.0 °F74 %29.81 in10.0 miENE (60°)20.7 mphScattered Clouds
3:01 PM82.4 °F73.4 °F74 %29.81 in10.0 miENE (60°)18.4 mphMostly Cloudy
3:36 PM82.4 °F71.6 °F70 %29.80 in10.0 miENE (60°)17.3 mph25.3 mphScattered Clouds
3:55 PM82.2 °F73.2 °F74 %29.81 in10.0 miNE (50°)18.4 mphPartly Cloudy
4:55 PM80.4 °F73.0 °F78 %29.82 in10.0 miENE (60°)17.3 mphScattered Clouds
5:02 PM80.6 °F73.4 °F79 %29.82 in10.0 miENE (60°)18.4 mphMostly Cloudy
5:12 PM78.8 °F71.6 °F78 %29.83 in10.0 miENE (60°)19.6 mphMostly Cloudy
5:24 PM78.8 °F71.6 °F78 %29.83 in10.0 miNE (50°)19.6 mph26.5 mphScattered Clouds
5:32 PM78.8 °F71.6 °F78 %29.83 in10.0 miENE (60°)18.4 mphMostly Cloudy
5:34 PM78.8 °F71.6 °F78 %29.83 in10.0 miNE (50°)18.4 mphScattered Clouds
5:55 PM79.0 °F72.1 °F79 %29.84 in10.0 miNE (50°)19.6 mphScattered Clouds
6:04 PM78.8 °F73.4 °F83 %29.84 in10.0 miNE (50°)19.6 mphMostly Cloudy
6:06 PM78.8 °F71.6 °F78 %29.84 in10.0 miNE (50°)18.4 mphMostly Cloudy
6:12 PM78.8 °F71.6 °F78 %29.84 in10.0 miENE (60°)17.3 mphMostly Cloudy
6:13 PM78.8 °F71.6 °F78 %29.84 in10.0 miENE (60°)17.3 mphScattered Clouds
6:55 PM77.5 °F72.5 °F84 %29.85 in10.0 miENE (60°)20.7 mphScattered Clouds
7:32 PM78.8 °F71.6 °F78 %29.86 in10.0 miNE (50°)19.6 mphMostly Cloudy
7:41 PM78.8 °F71.6 °F78 %29.86 in10.0 miENE (60°)17.3 mphScattered Clouds
7:52 PM78.8 °F73.4 °F83 %29.87 in10.0 miNE (50°)17.3 mphMostly Cloudy
7:55 PM78.1 °F72.9 °F84 %29.87 in10.0 miNE (50°)16.1 mphMostly Cloudy
8:01 PM78.8 °F73.4 °F83 %29.87 in10.0 miNE (50°)17.3 mphMostly Cloudy
8:09 PM78.8 °F73.4 °F83 %29.87 in10.0 miNE (50°)16.1 mphMostly Cloudy
8:11 PM78.8 °F73.4 °F83 %29.87 in10.0 miNE (50°)15.0 mphMostly Cloudy
8:17 PM78.8 °F73.4 °F83 %29.88 in10.0 miNE (40°)16.1 mphOvercast
8:20 PM77.0 °F73.4 °F89 %29.88 in10.0 miNE (40°)15.0 mphMostly Cloudy
8:55 PM77.4 °F73.2 °F87 %29.88 in10.0 miENE (60°)12.7 mphScattered Clouds
9:07 PM77.0 °F73.4 °F89 %29.89 in10.0 miENE (60°)16.1 mphMostly Cloudy
9:09 PM77.0 °F73.4 °F89 %29.89 in10.0 miENE (60°)15.0 mphScattered Clouds
9:13 PM77.0 °F73.4 °F89 %29.89 in10.0 miENE (60°)15.0 mphMostly Cloudy
9:35 PM78.8 °F73.4 °F83 %29.90 in10.0 miENE (60°)15.0 mphMostly Cloudy
9:52 PM77.0 °F73.4 °F89 %29.90 in10.0 miENE (60°)16.1 mphMostly Cloudy
9:55 PM77.9 °F73.0 °F85 %29.90 in10.0 miENE (60°)15.0 mphMostly Cloudy
9:59 PM77.0 °F73.4 °F89 %29.90 in10.0 miNE (50°)16.1 mphMostly Cloudy
10:01 PM78.8 °F73.4 °F83 %29.90 in10.0 miNE (50°)16.1 mphMostly Cloudy
10:17 PM77.0 °F73.4 °F89 %29.90 in10.0 miENE (60°)17.3 mphMostly Cloudy
10:20 PM77.0 °F73.4 °F89 %29.90 in10.0 miENE (60°)16.1 mphMostly Cloudy
10:23 PM77.0 °F73.4 °F89 %29.90 in10.0 miENE (60°)16.1 mphMostly Cloudy
10:35 PM77.0 °F73.4 °F89 %29.90 in10.0 miENE (60°)17.3 mphMostly Cloudy
10:37 PM77.0 °F73.4 °F89 %29.90 in10.0 miENE (60°)15.0 mphMostly Cloudy
10:55 PM77.7 °F73.0 °F85 %29.90 in10.0 miENE (60°)15.0 mphMostly Cloudy
11:07 PM77.0 °F73.4 °F89 %29.90 in8.0 miENE (60°)13.8 mphRainLight Rain
11:15 PM77.0 °F73.4 °F89 %29.89 in8.0 miENE (60°)17.3 mph23.0 mphRainLight Rain
11:20 PM77.0 °F73.4 °F89 %29.90 in10.0 miENE (60°)15.0 mph23.0 mphMostly Cloudy
11:21 PM77.0 °F73.4 °F89 %29.90 in10.0 miENE (60°)15.0 mph23.0 mphScattered Clouds
11:42 PM77.0 °F73.4 °F89 %29.93 in10.0 miENE (60°)11.5 mphClear
11:55 PM76.8 °F73.2 °F89 %29.89 in10.0 miENE (70°)11.5 mph0.00 inScattered Clouds
Hourly data recorded from PGUA, located miles away from Achang Bay, Guam







STORIES FROM OUR PARTNERS